| time (UTC) | temp F | wind direction | speed MPH | gust MPH | rain 1hr in | rain 24hr in | rain mn in | humidity % | barometer mb |
| 20260901074601 | 62 | 0 | 0.0 | 0.0 | 0.00 | 0.04 | 0.01 | 100 | 1016.6 |
| 20260901073101 | 62 | 0 | 0.0 | 0.0 | 0.00 | 0.04 | 0.01 | 100 | 1016.8 |
| 20260901071606 | 62 | 0 | 0.0 | 0.0 | 0.00 | 0.04 | 0.01 | 100 | 1016.8 |
| 20260901070106 | 62 | 0 | 0.0 | 0.0 | 0.00 | 0.04 | 0.01 | 100 | 1017.0 |
| 20260901064620 | 62 | 0 | 0.0 | 0.0 | 0.00 | 0.04 | 0.01 | 100 | 1017.0 |
| 20260901063139 | 61 | 0 | 0.0 | 0.0 | 0.00 | 0.04 | 0.01 | 100 | 1017.1 |
| 20260901061603 | 62 | 0 | 0.0 | 0.0 | 0.00 | 0.04 | 0.01 | 100 | 1017.2 |
| 20260901060104 | 61 | 0 | 0.0 | 0.0 | 0.00 | 0.04 | 0.01 | 100 | 1017.4 |
| 20260901054604 | 62 | 0 | 0.0 | 0.0 | 0.00 | 0.04 | 0.01 | 100 | 1017.5 |
| 20260901053115 | 62 | 0 | 0.0 | 0.0 | 0.01 | 0.04 | 0.01 | 100 | 1017.5 |
| 20260901051603 | 62 | 0 | 0.0 | 0.0 | 0.01 | 0.04 | 0.01 | 100 | 1017.7 |
| 20260901050107 | 62 | 0 | 0.0 | 0.0 | 0.01 | 0.04 | 0.01 | 100 | 1017.6 |
| 20260901044601 | 62 | 0 | 0.0 | 0.0 | 0.01 | 0.04 | 0.01 | 100 | 1017.9 |
| 20260901043105 | 62 | 0 | 0.0 | 0.0 | 0.00 | 0.03 | 0.00 | 100 | 1017.9 |
| 20260901041602 | 62 | 0 | 0.0 | 0.0 | 0.00 | 0.03 | 0.00 | 100 | 1017.9 |
| 20260901040104 | 62 | 0 | 0.0 | 0.0 | 0.00 | 0.03 | 0.00 | 100 | 1017.9 |
| 20260901034605 | 62 | 0 | 0.0 | 0.0 | 0.00 | 0.03 | 0.03 | 100 | 1018.0 |
| 20260901033103 | 62 | 0 | 0.0 | 0.0 | 0.00 | 0.03 | 0.03 | 100 | 1018.1 |
| 20260901031558 | 62 | 0 | 0.0 | 0.0 | 0.00 | 0.03 | 0.03 | 100 | 1018.2 |
| 20260901030109 | 62 | 0 | 0.0 | 0.0 | 0.00 | 0.03 | 0.03 | 100 | 1018.4 |
| 20260901024602 | 62 | 0 | 0.0 | 0.0 | 0.00 | 0.03 | 0.03 | 100 | 1018.5 |
| 20260901023106 | 62 | 0 | 0.0 | 0.0 | 0.00 | 0.03 | 0.03 | 100 | 1018.5 |
| 20260901021602 | 62 | 0 | 0.0 | 0.0 | 0.00 | 0.03 | 0.03 | 100 | 1018.5 |
| 20260901020058 | 62 | 0 | 0.0 | 0.0 | 0.00 | 0.03 | 0.03 | 100 | 1018.5 |
| 20260901014606 | 63 | 0 | 0.0 | 0.0 | 0.00 | 0.03 | 0.03 | 100 | 1018.7 |
| 20260901013109 | 63 | 0 | 0.0 | 0.0 | 0.00 | 0.03 | 0.03 | 100 | 1018.5 |
| 20260901011603 | 63 | 0 | 0.0 | 0.0 | 0.01 | 0.03 | 0.03 | 100 | 1018.5 |
| 20260901010105 | 63 | 0 | 0.0 | 0.0 | 0.02 | 0.03 | 0.03 | 100 | 1018.6 |
| 20260901004607 | 64 | 0 | 0.0 | 0.0 | 0.03 | 0.03 | 0.03 | 100 | 1018.6 |
| 20260901003109 | 64 | 0 | 0.0 | 0.0 | 0.03 | 0.03 | 0.03 | 100 | 1018.7 |
| 20260901001601 | 65 | 0 | 0.0 | 0.0 | 0.02 | 0.02 | 0.02 | 100 | 1018.6 |
| 20260831234606 | 66 | 0 | 0.0 | 0.0 | 0.00 | 0.00 | 0.00 | 100 | 1018.6 |
| 20260831233104 | 66 | 0 | 0.0 | 0.0 | 0.00 | 0.00 | 0.00 | 100 | 1018.6 |
| 20260831231615 | 67 | 0 | 0.0 | 0.0 | 0.00 | 0.00 | 0.00 | 100 | 1018.8 |
| 20260831230101 | 67 | 0 | 0.0 | 0.0 | 0.00 | 0.00 | 0.00 | 100 | 1018.9 |
| 20260831224605 | 67 | 0 | 0.0 | 0.0 | 0.00 | 0.00 | 0.00 | 100 | 1019.0 |
| 20260831223110 | 68 | 0 | 0.0 | 0.0 | 0.00 | 0.00 | 0.00 | 100 | 1019.1 |
| 20260831221603 | 68 | 0 | 0.0 | 0.0 | 0.00 | 0.00 | 0.00 | 100 | 1019.2 |
| 20260831220104 | 68 | 0 | 0.0 | 0.0 | 0.00 | 0.00 | 0.00 | 100 | 1019.0 |
| 20260831214559 | 68 | 0 | 0.0 | 0.0 | 0.00 | 0.00 | 0.00 | 100 | 1019.2 |
| 20260831213102 | 68 | 0 | 0.0 | 0.0 | 0.00 | 0.00 | 0.00 | 100 | 1019.3 |
| 20260831211624 | 69 | 0 | 0.0 | 1.0 | 0.00 | 0.00 | 0.00 | 100 | 1019.2 |
| 20260831210105 | 69 | 0 | 0.0 | 0.0 | 0.00 | 0.00 | 0.00 | 100 | 1019.3 |
| 20260831204603 | 69 | 0 | 0.0 | 0.0 | 0.00 | 0.00 | 0.00 | 11 | 1019.3 |
| 20260831203104 | 69 | 0 | 0.0 | 0.0 | 0.00 | 0.00 | 0.00 | 33 | 1019.4 |
| 20260831201610 | 69 | 0 | 0.0 | 0.0 | 0.00 | 0.00 | 0.00 | 56 | 1019.3 |
| 20260831200107 | 70 | 0 | 0.0 | 0.0 | 0.00 | 0.00 | 0.00 | 61 | 1019.4 |
| 20260831194642 | 70 | 0 | 0.0 | 1.0 | 0.00 | 0.00 | 0.00 | 58 | 1019.6 |
| 20260831193105 | 70 | 0 | 0.0 | 0.0 | 0.00 | 0.00 | 0.00 | 64 | 1019.8 |
| 20260831191604 | 70 | 0 | 0.0 | 0.0 | 0.00 | 0.00 | 0.00 | 60 | 1019.9 |
| 20260831190108 | 69 | 0 | 0.0 | 0.0 | 0.00 | 0.00 | 0.00 | 62 | 1020.1 |
| 20260831184603 | 69 | 0 | 0.0 | 1.0 | 0.00 | 0.00 | 0.00 | 56 | 1020.1 |
| 20260831183103 | 69 | 349 | 2.0 | 3.0 | 0.00 | 0.00 | 0.00 | 62 | 1020.5 |
| 20260831181603 | 69 | 311 | 2.0 | 5.0 | 0.00 | 0.00 | 0.00 | 67 | 1020.6 |
| 20260831180107 | 70 | 0 | 0.0 | 1.0 | 0.00 | 0.00 | 0.00 | 67 | 1020.6 |
| 20260831174605 | 70 | 217 | 1.0 | 4.0 | 0.00 | 0.00 | 0.00 | 68 | 1020.7 |
| 20260831173108 | 70 | 0 | 0.0 | 3.0 | 0.00 | 0.00 | 0.00 | 68 | 1020.9 |
| 20260831171603 | 70 | 0 | 0.0 | 0.0 | 0.00 | 0.00 | 0.00 | 68 | 1021.1 |
| 20260831170058 | 69 | 0 | 0.0 | 0.0 | 0.00 | 0.00 | 0.00 | 69 | 1021.4 |
| 20260831164604 | 70 | 107 | 0.0 | 3.0 | 0.00 | 0.00 | 0.00 | 69 | 1021.3 |
| 20260831163106 | 71 | 122 | 1.0 | 7.0 | 0.00 | 0.00 | 0.00 | 69 | 1021.1 |
| 20260831161606 | 71 | 126 | 2.0 | 8.0 | 0.00 | 0.00 | 0.00 | 69 | 1021.2 |
| 20260831160108 | 71 | 0 | 1.0 | 5.0 | 0.00 | 0.00 | 0.00 | 69 | 1021.3 |
| 20260831154639 | 70 | 111 | 1.0 | 9.0 | 0.00 | 0.00 | 0.00 | 70 | 1021.3 |
| 20260831153118 | 72 | 135 | 1.0 | 5.0 | 0.00 | 0.00 | 0.00 | 70 | 1021.4 |
| 20260831151607 | 71 | 186 | 2.0 | 6.0 | 0.00 | 0.00 | 0.00 | 70 | 1021.4 |
| 20260831144700 | 73 | 129 | 1.0 | 3.0 | 0.00 | 0.00 | 0.00 | 67 | 1021.2 |
| 20260831143106 | 73 | 0 | 2.0 | 4.0 | 0.00 | 0.00 | 0.00 | 68 | 1021.3 |
| 20260831141608 | 72 | 0 | 0.0 | 0.0 | 0.00 | 0.00 | 0.00 | 68 | 1021.0 |
| 20260831140100 | 72 | 0 | 0.0 | 2.0 | 0.00 | 0.00 | 0.00 | 67 | 1021.2 |
| 20260831134600 | 70 | 212 | 1.0 | 4.0 | 0.00 | 0.00 | 0.00 | 64 | 1021.0 |
| 20260831133110 | 69 | 203 | 0.0 | 1.0 | 0.00 | 0.00 | 0.00 | 48 | 1021.1 |
| 20260831131606 | 67 | 321 | 0.0 | 2.0 | 0.00 | 0.00 | 0.00 | 13 | 1021.1 |
| 20260831130110 | 65 | 135 | 0.0 | 1.0 | 0.00 | 0.00 | 0.00 | 100 | 1021.3 |
| 20260831124626 | 62 | 0 | 0.0 | 1.0 | 0.00 | 0.00 | 0.00 | 100 | 1021.1 |
| 20260831123106 | 60 | 0 | 0.0 | 0.0 | 0.00 | 0.00 | 0.00 | 100 | 1021.5 |
| 20260831121603 | 58 | 0 | 0.0 | 0.0 | 0.00 | 0.00 | 0.00 | 100 | 1021.2 |
| 20260831120109 | 58 | 0 | 0.0 | 0.0 | 0.00 | 0.00 | 0.00 | 100 | 1021.3 |
| 20260831114607 | 57 | 0 | 0.0 | 1.0 | 0.00 | 0.00 | 0.00 | 100 | 1021.2 |
| 20260831113111 | 57 | 0 | 0.0 | 0.0 | 0.00 | 0.00 | 0.00 | 100 | 1021.1 |
| 20260831111603 | 57 | 0 | 0.0 | 0.0 | 0.00 | 0.00 | 0.00 | 100 | 1021.0 |
| 20260831110108 | 56 | 0 | 0.0 | 0.0 | 0.00 | 0.00 | 0.00 | 100 | 1020.9 |
| 20260831104608 | 56 | 0 | 0.0 | 0.0 | 0.00 | 0.00 | 0.00 | 100 | 1020.7 |
| 20260831103058 | 56 | 0 | 0.0 | 1.0 | 0.00 | 0.00 | 0.00 | 100 | 1020.5 |
| 20260831101608 | 56 | 0 | 0.0 | 0.0 | 0.00 | 0.00 | 0.00 | 100 | 1020.5 |
| 20260831100127 | 57 | 0 | 1.0 | 2.0 | 0.00 | 0.00 | 0.00 | 100 | 1020.5 |
| 20260831094606 | 57 | 0 | 0.0 | 2.0 | 0.00 | 0.00 | 0.00 | 100 | 1020.3 |
| 20260831093103 | 57 | 316 | 1.0 | 4.0 | 0.00 | 0.00 | 0.00 | 100 | 1020.1 |
| 20260831091606 | 57 | 0 | 0.0 | 0.0 | 0.00 | 0.00 | 0.00 | 100 | 1020.2 |
| 20260831090104 | 57 | 0 | 0.0 | 0.0 | 0.00 | 0.00 | 0.00 | 100 | 1020.4 |
| 20260831084636 | 57 | 210 | 0.0 | 1.0 | 0.00 | 0.00 | 0.00 | 100 | 1020.5 |
| 20260831083101 | 57 | 0 | 0.0 | 0.0 | 0.00 | 0.00 | 0.00 | 100 | 1020.4 |
| 20260831081558 | 57 | 0 | 0.0 | 0.0 | 0.00 | 0.00 | 0.00 | 100 | 1020.4 |
| 20260831080128 | 58 | 0 | 0.0 | 0.0 | 0.00 | 0.00 | 0.00 | 100 | 1020.4 |